Location: Central Falls
(41.8900°N, 71.3929°W)
Time: 11:28:58
(UTC+00:00)

Tiros 1 despin weight - Pass Details

Date: 09 December 2023
Orbit: 581 x 625 km, 48.2° (Epoch: 20 February)

Event Time Altitude Azimuth Distance (km) Brightness Sun altitude
Rises 19:41:52 0° 201° (SSW) 2,821 ? 12.6°
Reaches altitude 10° 19:44:35 10° 185° (S) 1,914 ? 12.2°
Maximum altitude 19:47:53 21° 136° (SE) 1,335 ? 11.8°
Drops below altitude 10° 19:51:10 10° 87° (E) 1,905 ? 11.4°
Sets 19:53:51 0° 72° (ENE) 2,803 ? 11.0°
